www.pogodaiklimat.ru

Погода и климат >> Архив погоды >> Россия >> Шпицберген >> Баренцбург


АРХИВ ПОГОДЫ в Баренцбурге

Время (UTC), дата Ветер
(напр.,м/с)
 
Видим.   Явления Облачность Т
(С)
Тd
(С)
f
(%)
Тe
(С)
Тes
(С)
Комфортность P
(гПа)
Po
(гПа)
Тmin
(С)
Tmax
(С)
R
(мм)
R24
(мм)
S
(см)
12 11.12 В 4 10 км {снег, метель} 9/4 600 м
[Sc Ac trans]
-3.3 -8.5 67 -9 -9 тепло 1009.0 999.4
15 11.12 СВ 2 10 км {метель} 3/1 600 м
[Sc Ac trans]
-2.9 -7.0 73 -7 -7 тепло 1008.1 998.5 0.0
18 11.12 СВ 5 10 км {метель} 3/0
[Ac trans]
-2.1 -6.5 72 -8 -8 тепло 1007.2 997.7 -1.5 0.0
21 11.12 В 3 10 км ясно -1.2 -5.6 72 -6 -6 тепло 1006.1 996.6
00 12.12 СВ 4 10 км 4/4 600 м
[Sc]
-0.5 -4.2 76 -6 -6 тепло 1004.7 995.2
03 12.12 В 3 10 км 1/0
[Ac lent]
-1.2 -7.0 65 -6 -6 тепло 1003.4 993.9 -3.1
06 12.12 С 8-12
{12}
10 км позёмок {метель} 8/0
[Ac lent]
-1.7 -5.1 78 -10 -10 по сезону 1002.1 992.6 -2.2 36
09 12.12 С 6-9
{14}
10 км позёмок {метель} 5/3 600 м
[Sc Ac lent]
-2.0 -6.3 72 -9 -9 тепло 1000.6 991.1
12 12.12 С 5-9
{11}
10 км {метель} 5/3 600 м
[Sc Ci fib]
-2.2 -6.5 72 -9 -9 тепло 999.0 989.5
15 12.12 В 3-8
{10}
10 км {метель} 4/4 600 м
[Sc]
-2.8 -7.9 68 -8 -8 тепло 998.0 988.5
18 12.12 В 3 10 км {метель} 3/3 600 м
[Sc Ac trans]
-3.1 -8.3 67 -8 -8 тепло 997.1 987.6 -1.5
21 12.12 В 4 10 км 4/3 600 м
[Sc Ac trans]
-3.7 -8.6 69 -10 -10 по сезону 995.7 986.2
00 13.12 В 5 10 км ясно -4.8 -9.8 68 -12 -12 по сезону 994.6 985.0
03 13.12 СВ 3 10 км ясно -5.1 -10.4 66 -10 -10 по сезону 993.5 984.0 -5.2
06 13.12 С 1 10 км ясно -6.4 -10.6 72 -9 -9 тепло 992.9 983.3 -7.4 35
09 13.12 СВ 3 10 км ясно -5.2 -9.5 72 -10 -10 по сезону 992.3 982.7
12 13.12 штиль 0 10 км 3/3 600 м
[Sc]
-6.1 -8.5 83 -7 -7 тепло 991.9 982.3
15 13.12 ЮВ 1 10 км 3/3 600 м
[Sc]
-5.1 -7.9 81 -7 -7 тепло 992.0 982.5
18 13.12 В 3 10 км 4/4 600 м
[Sc]
-2.3 -7.0 70 -7 -7 тепло 992.6 983.1 -1.7
21 13.12 ЮЗ 2 10 км ясно -1.9 -5.7 75 -6 -6 тепло 992.9 983.5
00 14.12 С 10-13
{13}
10 км позёмок {метель} 5/5 600 м
[Sc]
-1.0 -6.4 67 -9 -9 тепло 992.6 983.2
03 14.12 С 9-14
{15}
10 км позёмок {метель} 5/3 600 м
[Sc Ci fib]
-1.9 -6.9 69 -10 -10 тепло 993.0 983.6 -6.4
06 14.12 С 9-15
{17}
10 км позёмок {ливн. осадки, метель} 10/10 300 м
[Cb cap]
-2.8 -6.0 79 -11 -11 по сезону 994.0 984.5 -2.9 0.0 36
09 14.12 С 3-8
{15}
10 км {метель} 4/4 600 м
[Sc]
-3.2 -9.3 63 -8 -8 тепло 995.4 985.9
12 14.12 В 3-9
{11}
10 км {метель} 3/3 600 м
[Sc]
-4.0 -12.2 53 -9 -9 тепло 996.6 987.0
15 14.12 СВ 6-11
{12}
10 км позёмок {метель} 8/8 600 м
[Sc]
-4.8 -12.1 57 -12 -12 по сезону 998.1 988.6 0.0
18 14.12 ЮВ 4-8
{13}
10 км позёмок {метель} 4/4 600 м
[Sc]
-5.5 -12.3 59 -12 -12 по сезону 999.6 990.0 -2.8
21 14.12 В 3 10 км {метель} 3/3 600 м
[Sc]
-6.6 -13.2 59 -12 -12 по сезону 1000.7 991.0
00 15.12 В 4-6
{10}
10 км {метель} 8/8 600 м
[Sc]
-7.1 -12.9 63 -14 -14 по сезону 1001.7 992.0
03 15.12 ЮВ 3 10 км 4/4 600 м
[Sc]
-7.3 -13.5 61 -13 -13 по сезону 1001.9 992.2 -7.6
06 15.12 В 2 10 км 6/6 600 м
[Sc]
-7.4 -13.9 60 -12 -12 по сезону 1002.2 992.5 -7.7 36
09 15.12 ЮВ 1 10 км 10/10 600 м
[Sc]
-7.8 -12.6 68 -10 -10 тепло 1003.0 993.2
12 15.12 ЮВ 1 10 км 9/9 600 м
[Sc]
-7.7 -13.9 61 -10 -10 тепло 1002.9 993.2
15 15.12 СВ 1 10 км {ливн. осадки} 10/10 300 м
[Cb cap]
-7.7 -13.1 65 -10 -10 тепло 1002.8 993.1 0.0
18 15.12 ЮВ 2 10 км слабый ливневой снег 10/10 300 м
[Cb cap]
-7.9 -12.3 71 -12 -12 по сезону 1002.9 993.2 -7.2 0.0
21 15.12 ЮВ 2 10 км {ливн. осадки} 9/9 300 м
[Cb cap]
-7.9 -13.4 65 -12 -12 по сезону 1002.9 993.1
00 16.12 ЮВ 2 10 км слабый ливневой снег 10/10 300 м
[Cb cap]
-8.3 -12.6 71 -13 -13 по сезону 1002.6 992.9
03 16.12 ЮВ 2 4000 м слабый ливневой снег 10/10 300 м
[Cb cap]
-8.4 -10.8 83 -13 -13 по сезону 1002.3 992.5 -8.6 0.2
06 16.12 Ю 1 4000 м слабый снег {ливн. осадки} 10/8 300 м
[Sc As op]
-8.5 -10.6 85 -11 -11 по сезону 1001.7 992.0 -8.7 0.4 36
09 16.12 В 2 10 км {снег} 10/8 600 м
[Sc As op]
-6.8 -10.5 75 -11 -11 по сезону 1001.7 992.0
12 16.12 С 1 4000 м слабый снег 10/5 600 м
[Sc As op]
-6.8 -10.3 76 -9 -9 тепло 1001.2 991.5
15 16.12 ЮВ 1 4000 м слабый снег 10/8 600 м
[Sc As op]
-7.3 -8.7 90 -10 -10 тепло 1000.9 991.2 0.5
18 16.12 С 1 4000 м слабый снег 10/10 600 м
[Frnb Ns]
-6.6 -7.7 92 -9 -9 тепло 1000.4 990.7 -6.3 2
21 16.12 С 5 4000 м слабый снег {метель} 10/10 300 м
[Frnb Ns]
-5.2 -6.7 89 -12 -12 по сезону 999.6 989.9
00 17.12 С 6 4000 м снег {метель} 10/10 300 м
[Frnb Ns]
-4.9 -6.3 90 -13 -13 по сезону 998.9 989.3
03 17.12 С 5 4000 м снег {метель} 10/10 300 м
[Frnb Ns]
-4.4 -5.7 91 -12 -12 по сезону 998.2 988.6 -7.3 6
06 17.12 С 5 4000 м слабый снег {метель} 10/10 300 м
[Frnb Ns]
-4.2 -5.6 90 -11 -11 по сезону 997.6 988.0 -6.6 6 44
09 17.12 С 4 4000 м слабый снег {метель} 10/10 300 м
[Frnb Ns]
-4.0 -5.6 89 -10 -10 тепло 998.0 988.4
12 17.12 С 2 4000 м слабый снег {метель} 10/10 300 м
[Frnb Ns]
-4.3 -5.7 90 -9 -9 тепло 998.4 988.8
15 17.12 ЮВ 3 4000 м слабый снег 10/10 300 м
[Frnb Ns]
-5.2 -7.2 86 -11 -11 по сезону 998.8 989.2 3
18 17.12 ЮВ 4 10 км {снег} 8/3 600 м
[Sc Ac trans]
-5.5 -8.7 78 -12 -12 по сезону 999.8 990.2 -3.9 1
21 17.12 ЮВ 3 10 км 6/0
[Ac trans]
-6.0 -9.8 74 -11 -11 по сезону 1000.7 991.0
00 18.12 ЮВ 4 10 км ясно -6.7 -11.1 71 -13 -13 по сезону 1001.8 992.1
03 18.12 ЮВ 4 10 км 3/0
[Ac lent]
-6.1 -10.9 69 -12 -12 по сезону 1002.5 992.8 -7.2 0.0
06 18.12 ЮВ 3 10 км ясно -7.3 -11.7 71 -13 -13 по сезону 1003.1 993.4 -7.7 44
09 18.12 штиль 0 10 км 8/0
[Ac trans]
-5.7 -10.0 72 -6 -6 тепло 1004.0 994.3

 

Местоположение метеостанции Баренцбург (Шпицберген, Россия): широта 78.07 долгота 14.25 высота над уровнем моря 75 м.

В архиве по умолчанию представлена погода в Баренцбурге за последнюю неделю. Архивные данные за месяц целиком и за предыдущие месяцы, начиная с января 2011 года, Вы можете получить, выбрав интересующий диапазон дат из раскрывающегося списка и нажав кнопку "Ввод!".

Внимание! Время в таблицах - всемирное. Для получения местного времени необходимо прибавить поправку, которая в Баренцбурге равна 1 ч.

Смотрите также архив погоды в соседних городах и на ближайших метеорологических станциях:

Погода в Svalbard Lufthavn (Норвегия) (35 км)
Погода в Akseloya (Норвегия) (45 км)
Погода в Pyramiden (Норвегия) (81 км)
Погода в Ny-Alesund (Норвегия) (108 км)
Погода в Hornsund (Норвегия) (123 км)
Погода в Sorkappoya (Норвегия) (186 км)
Погода в Edgeoya (Норвегия) (196 км)
Погода в Verlegenhuken (Норвегия) (224 км)
Погода в Hopen (Норвегия) (315 км)
Погода в Kongsoya (Норвегия) (337 км)

Пояснения к столбцам:

Ветер - указаны скорость ветра в м/с - средняя за 10 мин, порывы в срок и между сроками (в фигурных скобках) и направление, откуда дует ветер: С - северный, СВ - северо-восточный, В - восточный, ЮВ - юго-восточный, Ю - южный, ЮЗ - юго-западный, З - западный, СЗ - северо-западный.
Видимость - горизонтальная дальность видимости в метрах или километрах. При видимости от 1 до 10 км при отсутствии осадков обычно наблюдается дымка, при ухудшении видимости до 1 км и менее - туман. В сухую погоду видимость может ухудшаться дымом, пылью или мглою.
Явления - указаны атмосферные явления, наблюдавшиеся в срок или в последний час перед сроком; фигурными скобками обозначены явления, наблюдавшиеся между сроками (за 1-3 часа до срока); квадратными скобками обозначены град или гололедные отложения с указанием их диаметра в мм.
Облачность - указаны через наклонную черту общая и нижняя облачность в баллах и высота нижней границы облаков в метрах; квадратными скобками обозначены формы облаков: Ci - перистые, Cs - перисто-слоистые, Cc - перисто-кучевые, Ac - высококучевые, As - высокослоистые, Sc - слоисто-кучевые, Ns - слоисто-дождевые, Cu - кучевые, Cb - кучево-дождевые. Подробнее классификацию облаков см. в Атласе облаков (PDF).
T - Температура воздуха - температура, измеренная на высоте 2 м над землей.
Td - Температура точки росы - температура, при понижении до которой содержащийся в воздухе водяной пар достигнет насыщения.
f - Относительная влажность воздуха - влажноcть воздуха, измеренная на высоте 2 м над землей.
Te - Эффективная температура - температура, которую ощущает одетый по сезону человек в тени. Характеристика душности погоды. При расчете учитывается влияние влажности воздуха и скорости ветра на теплоощущения человека.
Tes - Эффективная температура на солнце - температура, которую ощущает человек, с поправкой на солнечный нагрев. Характеристика знойности погоды. Зависит от высоты солнца над горизонтом, облачности и скорости ветра. Ночью, в пасмурную погоду, а также при ветре 12 м/с и более поправка равна нулю.
P - Атмосферное давление - приведенное к уровню моря атмосферное давление.
Po - Атмосферное давление - измеренное на уровне метеостанции атмосферное давление.
Tmin - Минимальная температура - минимум температуры воздуха на высоте 2 м над землей.
Tmax - Максимальная температура - максимум температуры воздуха на высоте 2 м над землей.
R - Количество осадков - Количество выпавших осадков за период времени, мм. При наведении курсора мыши на число - период времени, за который выпало указанное количество осадков.
R24 - Количество осадков - Количество выпавших осадков за 24 часа, мм.
S - Снежный покров - Высота снежного покрова, см. При наведении курсора мыши на число - состояние снежного покрова и степень покрытия местности в баллах.